This demonstration page uses our WeatherBlox Daily Observations layout. Learn more.

Left ArrowRight Arrow

Hourly Observations for September 15, 2022

Temp ( °F °C ) Dew Point ( °F °C ) Humidity (%) Winds ( mph kmh ) Pressure ( in mb ) Visibility ( mi km ) Precip ( " mm )
12:15 am 00:15 Clear 63 17 61 16 94 94 Calm 30.15 1021 10 16 0.00 0.00
12:35 am 00:35 Clear 64 18 61 16 88 88 Calm 30.15 1021 10 16 0.00 0.00
12:55 am 00:55 Clear 63 17 61 16 94 94 WNW 3 6 30.13 1020 10 16 0.00 0.00
1:15 am 01:15 Clear 64 18 61 16 88 88 NW 3 6 30.15 1021 10 16 0.00 0.00
1:35 am 01:35 Clear 64 18 61 16 88 88 NW 3 6 30.15 1021 10 16 0.00 0.00
1:55 am 01:55 Clear 64 18 61 16 88 88 NNW 8 13 30.15 1021 10 16 0.00 0.00
2:15 am 02:15 Clear 64 18 61 16 88 88 NNW 7 11 30.13 1020 10 16 0.00 0.00
2:35 am 02:35 Clear 66 19 61 16 83 83 NNW 7 11 30.14 1021 10 16 0.00 0.00
2:55 am 02:55 Clear 66 19 61 16 83 83 NNW 6 9 30.14 1021 10 16 0.00 0.00
3:15 am 03:15 Clear 64 18 61 16 88 88 NNW 7 11 30.15 1021 10 16 0.00 0.00
3:35 am 03:35 Clear 64 18 61 16 88 88 NNW 9 15 30.15 1021 10 16 0.00 0.00
3:55 am 03:55 Clear 64 18 61 16 88 88 NNW 6 9 30.15 1021 10 16 0.00 0.00
4:15 am 04:15 Clear 64 18 61 16 88 88 N 6 9 30.15 1021 10 16 0.00 0.00
4:35 am 04:35 Clear 64 18 61 16 88 88 NNW 8 13 30.15 1021 10 16 0.00 0.00
4:55 am 04:55 Clear 64 18 61 16 88 88 NNW 12 19 30.15 1021 10 16 0.00 0.00
5:15 am 05:15 Clear 64 18 61 16 88 88 NNW 10 17 30.15 1021 10 16 0.00 0.00
5:35 am 05:35 Clear 64 18 61 16 88 88 NNW 6 9 30.15 1021 10 16 0.00 0.00
5:55 am 05:55 Clear 63 17 59 15 88 88 NNW 10 17 30.17 1022 10 16 0.00 0.00
6:15 am 06:15 Clear 64 18 59 15 83 83 N 7 11 30.17 1022 10 16 0.00 0.00
6:35 am 06:35 Clear 64 18 59 15 83 83 N 5 7 30.17 1022 10 16 0.00 0.00
6:55 am 06:55 Sunny 64 18 59 15 83 83 NNE 3 6 30.18 1022 10 16 0.00 0.00
7:15 am 07:15 Sunny 64 18 59 15 83 83 N 6 9 30.20 1023 10 16 0.00 0.00
7:35 am 07:35 Sunny 64 18 61 16 88 88 NNW 7 11 30.20 1023 10 16 0.00 0.00
7:55 am 07:55 Sunny 64 18 61 16 88 88 N 5 7 30.20 1023 10 16 0.00 0.00
8:15 am 08:15 Sunny 68 20 61 16 78 78 NNW 8 13 30.21 1023 10 16 0.00 0.00
8:35 am 08:35 Sunny 68 20 61 16 78 78 N 9 15 30.21 1023 10 16 0.00 0.00
8:55 am 08:55 Sunny 68 20 63 17 83 83 NW 13 20 30.21 1023 10 16 0.00 0.00
9:15 am 09:15 Sunny 70 21 63 17 78 78 NNW 15 24 30.21 1023 10 16 0.00 0.00
9:35 am 09:35 Sunny 70 21 63 17 78 78 N 10 17 30.22 1023 10 16 0.00 0.00
9:55 am 09:55 Sunny 72 22 63 17 73 73 N 10 17 30.21 1023 10 16 0.00 0.00
10:15 am 10:15 Partly Cloudy 72 22 63 17 73 73 N 7 11 30.22 1023 10 16 0.00 0.00
10:35 am 10:35 Partly Cloudy 72 22 63 17 73 73 N 10 17 30.22 1023 10 16 0.00 0.00
10:55 am 10:55 Sunny 73 23 63 17 69 69 N 12 19 30.22 1023 10 16 0.00 0.00
11:15 am 11:15 Sunny 73 23 63 17 69 69 N 13 20 30.21 1023 10 16 0.00 0.00
11:35 am 11:35 Partly Cloudy 73 23 63 17 69 69 N 12 19 30.21 1023 10 16 0.00 0.00
11:55 am 11:55 Partly Cloudy 75 24 63 17 65 65 N 12 19 30.21 1023 10 16 0.00 0.00
12:15 pm 12:15 Partly Cloudy 75 24 63 17 65 65 N 14 22 30.20 1023 N/A 0.00 0.00
12:35 pm 12:35 Mostly Cloudy 77 25 63 17 61 61 NE 9 15 30.19 1022 N/A 0.00 0.00
12:55 pm 12:55 Mostly Cloudy 75 24 61 16 61 61 NNW 8 13 30.20 1023 N/A 0.00 0.00
1:15 pm 13:15 Mostly Cloudy 77 25 63 17 61 61 N 8 13 30.19 1022 N/A 0.00 0.00
1:35 pm 13:35 Mostly Cloudy 77 25 63 17 61 61 N 3 6 30.19 1022 N/A 0.00 0.00
1:55 pm 13:55 Mostly Cloudy 77 25 61 16 57 57 N 12 19 30.19 1022 N/A 0.00 0.00
2:15 pm 14:15 Partly Cloudy 79 26 61 16 54 54 N 9 15 30.18 1022 N/A 0.00 0.00
2:35 pm 14:35 Partly Cloudy 79 26 61 16 54 54 N 10 17 30.17 1022 N/A 0.00 0.00
2:55 pm 14:55 Mostly Cloudy 79 26 59 15 51 51 NE 8 13 30.16 1021 N/A 0.00 0.00
3:15 pm 15:15 Partly Cloudy 79 26 61 16 54 54 NNE 8 13 30.16 1021 N/A 0.00 0.00
3:35 pm 15:35 Mostly Cloudy 79 26 61 16 54 54 N 7 11 30.15 1021 N/A 0.00 0.00
3:55 pm 15:55 Partly Cloudy 79 26 61 16 54 54 NNE 7 11 30.15 1021 10 16 0.00 0.00
4:15 pm 16:15 Partly Cloudy 79 26 59 15 51 51 Calm 30.14 1021 10 16 0.00 0.00
4:35 pm 16:35 Sunny 79 26 59 15 51 51 NNE 6 9 30.15 1021 10 16 0.00 0.00
4:55 pm 16:55 Partly Cloudy 79 26 59 15 51 51 NNE 7 11 30.15 1021 10 16 0.00 0.00
5:15 pm 17:15 Sunny 79 26 59 15 51 51 NNE 8 13 30.15 1021 10 16 0.00 0.00
5:35 pm 17:35 Sunny 79 26 55 13 45 45 NE 8 13 30.15 1021 10 16 0.00 0.00
5:55 pm 17:55 Sunny 77 25 54 12 44 44 NNE 6 9 30.16 1021 10 16 0.00 0.00
6:15 pm 18:15 Sunny 77 25 54 12 44 44 NE 6 9 30.16 1021 10 16 0.00 0.00
6:35 pm 18:35 Sunny 77 25 54 12 44 44 NNE 6 9 30.16 1021 10 16 0.00 0.00
6:55 pm 18:55 Sunny 75 24 52 11 44 44 NNE 7 11 30.17 1022 10 16 0.00 0.00
7:15 pm 19:15 Sunny 73 23 54 12 50 50 NNE 5 7 30.17 1022 10 16 0.00 0.00
7:35 pm 19:35 Clear 72 22 54 12 53 53 NE 5 7 30.18 1022 10 16 0.00 0.00
7:55 pm 19:55 Clear 72 22 55 13 57 57 NE 6 9 30.19 1022 10 16 0.00 0.00
8:15 pm 20:15 Clear 70 21 57 14 64 64 NE 5 7 30.19 1022 10 16 0.00 0.00
8:35 pm 20:35 Clear 70 21 57 14 64 64 NE 3 6 30.20 1023 10 16 0.00 0.00
8:55 pm 20:55 Clear 70 21 55 13 60 60 NE 5 7 30.21 1023 10 16 0.00 0.00
9:15 pm 21:15 Clear 68 20 55 13 64 64 Calm 30.21 1023 10 16 0.00 0.00
9:35 pm 21:35 Clear 68 20 55 13 64 64 Calm 30.22 1023 10 16 0.00 0.00
9:55 pm 21:55 Clear 64 18 57 14 77 77 Calm 30.22 1024 10 16 0.00 0.00
10:15 pm 22:15 Clear 64 18 57 14 77 77 Calm 30.22 1024 10 16 0.00 0.00
10:35 pm 22:35 Clear 61 16 59 15 94 94 N 3 6 30.23 1024 10 16 0.00 0.00
10:55 pm 22:55 Clear 63 17 59 15 88 88 Calm 30.23 1024 10 16 0.00 0.00
11:15 pm 23:15 Clear 63 17 59 15 88 88 N 3 6 30.24 1024 10 16 0.00 0.00
11:35 pm 23:35 Clear 61 16 57 14 88 88 Calm 30.24 1024 10 16 0.00 0.00
11:55 pm 23:55 Clear 61 16 57 14 88 88 Calm 30.24 1024 10 16 0.00 0.00

Powered by AerisWeather